Henry Tift Myers AP, Tifton,, GA

3:33 AM EST on December 11, 2019 (GMT -0500)
Myers

Weather History for KTMA - October, 2019

Change the Weather History Date:

Wednesday, October 30, 2019

  Actual Average Record
Temperature  
Mean Temperature 76 °F -  
Max Temperature 80 °F 73 °F 85 °F (2016)
Min Temperature 71 °F 53 °F 38 °F (2017)
Cooling Degree Days 10    
Growing Degree Days 26 (Base 50)    
Moisture  
Dew Point 72 °F    
Average Humidity 92    
Maximum Humidity 99    
Minimum Humidity 75    
Precipitation  
Precipitation 0.00 in - - ()
Sea Level Pressure  
Sea Level Pressure 30.07 in    
Wind  
Wind Speed 4 mph ()    
Max Wind Speed 13 mph    
Max Gust Speed -    
Visibility 9.3 miles    
Events Rain    
Averages and records for this station are not official NWS values.
T = Trace of Precipitation, MM = Missing Value Source: Averaged Metar Reports

Daily Weather History Graph

Daily Weather History Graph

Search for Another Location

Airport or City:

Astronomy

Oct. 30, 2019 Rise Set
Actual Time 7:47 AM EDT 6:46 PM EDT
Civil Twilight 7:22 AM EDT 7:11 PM EDT
Nautical Twilight 6:54 AM EDT 7:40 PM EDT
Astronomical Twilight 6:25 AM EDT 8:08 PM EDT
Moon 10:22 AM EDT (10/30) 9:02 PM EDT (10/30)
Length of Visible Light 11h 48m
Length of Day
10h 58m
Waxing Crescent, 8% of the Moon is Illuminated
Oct 30
Waxing Crescent
Nov 4
First Quarter
Nov 12
Full
Nov 19
Last Quarter
Nov 26
New

Hourly Weather History & Observations

Time (EDT) Temp. Heat Index Dew Point Humidity Pressure Visibility Wind Dir Wind Speed Gust Speed Precip Events Conditions
12:15 AM 71.2 °F - 70.7 °F 98% 30.12 in 10.0 mi East 3.5 mph - N/A   Overcast
12:35 AM 71.6 °F - 70.3 °F 96% 30.12 in 10.0 mi ESE 4.6 mph - N/A   Overcast
12:55 AM 71.6 °F - 70.3 °F 96% 30.12 in 10.0 mi ESE 3.5 mph - N/A   Overcast
1:15 AM 71.6 °F - 70.5 °F 96% 30.12 in 10.0 mi ESE 5.8 mph - N/A   Overcast
1:35 AM 71.4 °F - 70.9 °F 98% 30.11 in 5.0 mi ESE 5.8 mph - N/A   Overcast
1:55 AM 71.6 °F - 71.1 °F 98% 30.11 in 3.0 mi ESE 6.9 mph - N/A   Overcast
2:15 AM 71.6 °F - 71.4 °F 99% 30.10 in 3.0 mi ESE 4.6 mph - N/A   Overcast
2:35 AM 71.8 °F - 71.6 °F 99% 30.10 in 4.0 mi ESE 5.8 mph - N/A   Overcast
2:55 AM 72.0 °F - 71.6 °F 99% 30.09 in 5.0 mi ESE 3.5 mph - N/A   Overcast
3:15 AM 72.1 °F - 71.6 °F 98% 30.09 in 10.0 mi Calm Calm - N/A   Overcast
3:35 AM 72.5 °F - 71.8 °F 98% 30.09 in 10.0 mi ESE 3.5 mph - N/A   Overcast
3:55 AM 72.5 °F - 71.8 °F 98% 30.08 in 10.0 mi Calm Calm - N/A   Overcast
4:15 AM 72.5 °F - 71.8 °F 98% 30.08 in 10.0 mi SE 4.6 mph - N/A   Overcast
4:35 AM 72.7 °F - 71.8 °F 97% 30.08 in 10.0 mi SE 3.5 mph - N/A   Overcast
4:55 AM 72.7 °F - 71.8 °F 97% 30.08 in 10.0 mi Calm Calm - N/A   Overcast
5:15 AM 72.5 °F - 71.6 °F 97% 30.08 in 10.0 mi ESE 3.5 mph - N/A   Overcast
5:35 AM 72.5 °F - 71.6 °F 97% 30.08 in 10.0 mi SE 4.6 mph - N/A   Overcast
5:55 AM 72.5 °F - 71.8 °F 98% 30.09 in 10.0 mi ESE 3.5 mph - N/A   Overcast
6:15 AM 72.5 °F - 71.8 °F 98% 30.09 in 10.0 mi ESE 4.6 mph - N/A   Overcast
6:35 AM 72.5 °F - 71.8 °F 98% 30.09 in 10.0 mi SE 3.5 mph - N/A   Overcast
6:55 AM 72.5 °F - 71.8 °F 98% 30.09 in 10.0 mi ESE 3.5 mph - N/A   Overcast
7:15 AM 72.5 °F - 71.8 °F 98% 30.09 in 10.0 mi ESE 3.5 mph - N/A   Overcast
7:35 AM 72.5 °F - 71.8 °F 98% 30.10 in 7.0 mi ESE 3.5 mph - N/A   Overcast
7:55 AM 72.5 °F - 71.8 °F 98% 30.10 in 7.0 mi SE 3.5 mph - N/A   Overcast
8:15 AM 72.7 °F - 72.0 °F 98% 30.11 in 7.0 mi Calm Calm - N/A   Overcast
8:35 AM 72.7 °F - 72.0 °F 98% 30.11 in 7.0 mi Calm Calm - N/A   Overcast
8:55 AM 73.0 °F - 72.3 °F 98% 30.11 in 7.0 mi ESE 4.6 mph - N/A   Overcast
9:15 AM 73.4 °F - 72.3 °F 96% 30.11 in 10.0 mi SE 5.8 mph - N/A   Overcast
9:35 AM 73.8 °F - 72.5 °F 96% 30.11 in 10.0 mi SE 4.6 mph - N/A   Overcast
10:00 AM 74.5 °F - 72.7 °F 94% 30.11 in 10.0 mi SE 6.9 mph - N/A   Overcast
10:15 AM 74.8 °F - 72.9 °F 94% 30.11 in 10.0 mi SE 9.2 mph - N/A   Overcast
10:35 AM 75.6 °F - 73.4 °F 93% 30.11 in 10.0 mi SSE 6.9 mph - N/A   Overcast
10:55 AM 76.1 °F - 73.2 °F 91% 30.11 in 10.0 mi SE 8.1 mph - N/A   Overcast
11:15 AM 76.5 °F - 73.4 °F 90% 30.11 in 10.0 mi SSE 5.8 mph - N/A   Overcast
11:35 AM 77.0 °F - 73.4 °F 89% 30.10 in 10.0 mi SSE 6.9 mph - N/A   Overcast
11:55 AM 78.1 °F - 73.6 °F 86% 30.09 in 10.0 mi South 9.2 mph - N/A   Overcast
12:15 PM 79.5 °F - 73.0 °F 80% 30.09 in 10.0 mi SSE 12.7 mph - N/A   Overcast
12:35 PM 79.3 °F - 73.2 °F 81% 30.09 in 10.0 mi South 11.5 mph - N/A   Overcast
12:55 PM 79.2 °F - 73.2 °F 82% 30.08 in 10.0 mi SSE 8.1 mph - N/A   Mostly Cloudy
1:15 PM 79.9 °F - 72.9 °F 79% 30.08 in 10.0 mi South 9.2 mph - N/A   Mostly Cloudy
1:35 PM 80.1 °F 84.2 °F 73.0 °F 79% 30.06 in 10.0 mi South 11.5 mph - N/A   Scattered Clouds
1:55 PM 79.9 °F - 72.5 °F 78% 30.06 in 10.0 mi South 8.1 mph - N/A   Mostly Cloudy
2:15 PM 80.1 °F 84.1 °F 72.7 °F 78% 30.05 in 10.0 mi SE 8.1 mph - N/A   Mostly Cloudy
2:35 PM 80.2 °F 84.5 °F 72.7 °F 78% 30.04 in 10.0 mi South 5.8 mph - N/A   Mostly Cloudy
2:55 PM 80.1 °F 84.1 °F 72.5 °F 78% 30.04 in 10.0 mi SSE 6.9 mph - N/A   Mostly Cloudy
3:15 PM 80.4 °F 84.7 °F 72.7 °F 77% 30.04 in 10.0 mi SSE 5.8 mph - N/A   Overcast
3:35 PM 80.6 °F 85.2 °F 73.2 °F 78% 30.03 in 10.0 mi South 6.9 mph - N/A   Mostly Cloudy
3:55 PM 80.6 °F 84.7 °F 72.1 °F 75% 30.03 in 10.0 mi South 8.1 mph - N/A   Mostly Cloudy
4:15 PM 80.1 °F 84.0 °F 72.3 °F 77% 30.03 in 10.0 mi South 4.6 mph - N/A Rain Light Rain
4:35 PM 79.0 °F - 73.0 °F 82% 30.02 in 10.0 mi SE 3.5 mph - N/A   Mostly Cloudy
4:55 PM 78.8 °F - 72.7 °F 81% 30.02 in 10.0 mi SSE 3.5 mph - N/A   Scattered Clouds
5:15 PM 78.8 °F - 72.9 °F 82% 30.01 in 10.0 mi SE 3.5 mph - N/A   Clear
5:35 PM 78.3 °F - 72.9 °F 83% 30.00 in 10.0 mi SSE 4.6 mph - N/A   Clear
5:55 PM 77.9 °F - 72.7 °F 84% 30.00 in 10.0 mi SSE 5.8 mph - N/A   Clear
6:15 PM 77.4 °F - 72.9 °F 86% 30.01 in 10.0 mi SSE 3.5 mph - N/A   Clear
6:35 PM 77.0 °F - 73.2 °F 88% 30.01 in 10.0 mi Calm Calm - N/A   Scattered Clouds
6:55 PM 76.1 °F - 73.0 °F 90% 30.01 in 10.0 mi Calm Calm - N/A   Scattered Clouds
7:15 PM 76.1 °F - 73.2 °F 91% 30.01 in 10.0 mi Calm Calm - N/A   Scattered Clouds
7:35 PM 75.0 °F - 73.4 °F 95% 30.01 in 10.0 mi Calm Calm - N/A   Scattered Clouds
7:55 PM 74.5 °F - 73.2 °F 96% 30.01 in 10.0 mi Calm Calm - N/A   Scattered Clouds
8:15 PM 74.1 °F - 72.9 °F 96% 30.02 in 10.0 mi Calm Calm - N/A   Clear
8:35 PM 73.4 °F - 72.7 °F 98% 30.01 in 7.0 mi ESE 3.5 mph - N/A   Clear
8:55 PM 73.9 °F - 72.9 °F 96% 30.01 in 10.0 mi Calm Calm - N/A   Clear
9:15 PM 74.3 °F - 73.0 °F 96% 30.02 in 10.0 mi Calm Calm - N/A   Clear
9:35 PM 74.7 °F - 73.2 °F 95% 30.03 in 10.0 mi Calm Calm - N/A   Clear
9:55 PM 74.3 °F - 73.2 °F 96% 30.03 in 10.0 mi Calm Calm - N/A   Clear
10:15 PM 74.1 °F - 72.9 °F 96% 30.04 in 10.0 mi SSE 3.5 mph - N/A   Clear
10:35 PM 74.5 °F - 73.0 °F 95% 30.04 in 10.0 mi SSE 4.6 mph - N/A   Clear
10:55 PM 74.5 °F - 73.0 °F 95% 30.03 in 10.0 mi SSE 3.5 mph - N/A   Clear
11:15 PM 73.9 °F - 72.7 °F 96% 30.04 in 10.0 mi South 4.6 mph - N/A   Clear
11:35 PM 74.5 °F - 72.5 °F 94% 30.03 in 10.0 mi South 4.6 mph - N/A   Clear
11:55 PM 74.3 °F - 72.3 °F 94% 30.03 in 10.0 mi South 5.8 mph - N/A   Clear